Location: Alvediston
(51.0078°N, 2.0364°W)
Time: 09:34:42
(UTC+00:00)

STARLINK-56 - Pass Details

Date: 27 February 2020
Orbit: 529 x 530 km, 53.0° (Epoch: 04 April)

Event Time Altitude Azimuth Distance (km) Brightness Sun altitude
Rises 19:34:25 0° 280° (W) 2,672 8.9 -18.0°
Reaches altitude 10° 19:36:38 10° 283° (WNW) 1,782 7.5 -18.3°
Maximum altitude 19:40:40 67° 7° (N) 579 3.6 -18.9°
Enters shadow 19:41:38 48° 69° (ENE) 705 3.7 -19.1°
